[Iaude] MPEC C136: 2024 CZ2 [a=1.91,e=0.44,i=6.4,H=25.9]
    mpec at cfa.harvard.edu 
    mpec at cfa.harvard.edu
       
    Mon Feb 12 23:48:32 EST 2024
    
    
  
M.P.E.C. 2024-C136                            Issued 2024 February 13, 04:46 UT
     The Minor Planet Electronic Circulars contain information on unusual
         minor planets, routine data on comets and natural satellites,
         and occasional editorial announcements.  They are published
    on behalf of Division F of the International Astronomical Union by the
          Minor Planet Center, Smithsonian Astrophysical Observatory,
                          Cambridge, MA 02138, U.S.A.
			  
             Prepared using the Tamkin Foundation Computer Network
                              MPC at CFA.HARVARD.EDU
            URL https://www.minorplanetcenter.net/    ISSN 1523-6714
                                    2024 CZ2                                    
Observations:
     K24C02Z* C2024 02 11.48107108 41 42.033+20 10 32.56         22.05wXEC136F52
     K24C02Z  C2024 02 11.49409108 41 46.929+20 11 17.69         21.61wXEC136F52
     K24C02Z  C2024 02 11.52010808 41 56.857+20 12 48.06         21.71wXEC136F52
     K24C02Z  C2024 02 11.57839108 42 19.589+20 16 09.29         22.33GVEC136F52
     K24C02Z  C2024 02 11.57921108 42 19.919+20 16 11.65         21.45GVEC136F52
     K24C02Z $C2024 02 12.91755108 51 58.843+21 36 06.87         20.6 GVEC136J04
     K24C02Z $C2024 02 12.93889908 52 07.485+21 37 25.36         20.7 GVEC136J04
     K24C02Z $C2024 02 12.96008808 52 16.021+21 38 42.72         20.6 GVEC136J04
     K24C02Z  C2024 02 13.16273208 53 46.310+21 50 30.54         21.4 GVEC136H01
     K24C02Z  C2024 02 13.17069408 53 49.588+21 50 59.77         21.5 GVEC136H01
     K24C02Z  C2024 02 13.17883208 53 52.938+21 51 29.66         21.5 GVEC136H01
     K24C02Z  C2024 02 13.18521408 53 55.546+21 51 52.85         21.3 GVEC136H01
Observer details:
F52 Pan-STARRS 2, Haleakala.  Observers J. Herman, T. Lowe, P. Minguez, A.
    Schultz, I. Smith.  Measurers K. Chambers, T. de Boer, J. Fairlamb, H.
    Gao, M. Huber, C.-C. Lin, E. Magnier, Y. Ramanjooloo, R. Wainscoat, R.
    Weryk.  1.8-m Ritchey-Chretien + CCD.
H01 Magdalena Ridge Observatory, Socorro.  Observers W. H. Ryan, E. V. Ryan.
    Measurer W. H. Ryan.  2.4-m f/8.9 Ritchey-Chretien + CCD.
J04 ESA Optical Ground Station, Tenerife.  Observers P. Ruiz, F. Ocana, M.
    Micheli, L. Conversi.  Measurers F. Ocana, M. Micheli, R. Kresken.
    1.0-m f/4.4 reflector + CCD.
Orbital elements:
2024 CZ2                                                 Earth MOID = 0.0868 AU
Epoch 2023 Sept. 13.0 TT = JDT 2460200.5                MPC                     
M 300.91006              (2000.0)            P               Q                  
n   0.37444961     Peri.    8.10342     -0.84166356     -0.53511300             
a   1.9063697      Node   139.27327     +0.48900321     -0.81223119             
e   0.4362121      Incl.    6.38001     +0.22908145     -0.23223817             
P   2.63           H   25.91          G   0.15           U   9                  
Residuals in seconds of arc
240211 F52  0.4+  0.2+    240211 F52  0.1+  0.2-    240213 H01  0.1+  0.1-
240211 F52  0.1-  0.3-    240212 J04  0.1-  0.0     240213 H01  0.0   0.1-
240211 F52  0.2-  0.4-    240212 J04  0.1-  0.1+    240213 H01  0.1+  0.0
240211 F52  0.0   0.2+    240212 J04  0.0   0.1+    240213 H01  0.0   0.2-
Ephemeris:
2024 CZ2                 a,e,i = 1.91, 0.44, 6                   q = 1.0748
Date    TT    R. A. (2000) Decl.     Delta      r    Elong.  Phase     V
2024 01 14    07 00 41.1 +02 00 46   0.1654  1.1390   158.4    18.5    23.2
...
2024 01 29    07 33 37.0 +08 27 32   0.1174  1.0963   160.6    17.3    22.4
...
2024 02 06    08 08 13.7 +14 51 03   0.1001  1.0825   163.8    14.7    21.9
...
2024 02 12    08 45 21.2 +20 41 37   0.09223 1.0766   165.6    13.2    21.7
2024 02 13    08 52 30.9 +21 41 15   0.09143 1.0760   165.6    13.2    21.6
2024 02 14    08 59 56.1 +22 40 17   0.09078 1.0755   165.5    13.3    21.6
...
2024 02 20    09 48 44.6 +27 59 40   0.09020 1.0749   162.6    16.0    21.7
...
2024 02 28    10 56 10.1 +32 15 07   0.09790 1.0804   155.8    22.0    22.1
...
2024 03 14    12 25 27.9 +32 03 06   0.1324  1.1090   148.3    28.1    23.0
A. U. Tomatic                (C) Copyright 2024 MPC           M.P.E.C. 2024-C136
    
    
More information about the Iaude
mailing list